Temperature
-0 -0 -0 0 -0 0 0 0 -0 -1 -0 1 1 2 2 2 2 2 3 3 3 3 3 4 4 4 4 4 5 5 5 5 5 5 5 5 5 5
-1 -1 -1 -0 -0 -0 -0 -0 -0 -1 -1 -0 0 1 1 1 1 2 2 2 2 3 3 3 3 3 3 3 4 4 4 4 4 5 5 5 5 5
-1 -1 -1 -1 -1 -1 -1 -1 -1 -1 -1 -0 -0 0 0 0 1 1 1 2 2 2 2 2 2 3 3 3 3 3 4 4 4 4 4 4 4 4
-2 -2 -2 -2 -1 -1 -1 -1 -1 -1 -1 -1 -1 -0 -0 -0 -0 0 0 1 1 1 1 1 2 2 2 2 2 3 3 3 3 3 3 3 4 4
-2 -2 -2 -2 -2 -2 -2 -2 -2 -2 -2 -2 -1 -1 -1 -1 -1 -1 -0 -0 0 0 1 1 1 1 1 1 2 2 2 2 2 2 2 3 3 3
-3 -3 -2 -2 -2 -2 -2 -2 -2 -2 -2 -2 -2 -2 -2 -2 -2 -2 -1 -1 -1 -0 -0 0 0 0 0 1 1 1 1 1 1 2 2 2 2 2
-4 -3 -3 -3 -3 -3 -3 -3 -3 -3 -3 -3 -2 -2 -2 -2 -2 -2 -2 -2 -1 -1 -1 -0 -0 -0 -0 0 0 0 1 1 1 1 1 1 1 1
-4 -4 -4 -3 -3 -3 -3 -3 -3 -3 -3 -3 -3 -3 -3 -3 -3 -3 -3 -3 -3 -2 -2 -1 -1 -1 -1 -1 -0 -0 -0 -0 -0 -0 0 0 0 1
-5 -4 -4 -4 -4 -3 -3 -4 -3 -3 -4 -3 -3 -3 -3 -3 -3 -3 -3 -3 -3 -3 -3 -2 -2 -2 -2 -2 -1 -1 -1 -1 -1 -1 -1 -1 -0 -0
-5 -5 -5 -4 -4 -4 -4 -4 -4 -4 -4 -4 -4 -4 -4 -4 -4 -4 -4 -4 -4 -3 -3 -3 -3 -3 -2 -2 -2 -2 -2 -2 -2 -2 -2 -1 -1 -1
-6 -5 -5 -5 -5 -5 -5 -5 -4 -4 -4 -4 -4 -4 -4 -4 -4 -4 -4 -4 -4 -4 -4 -4 -4 -4 -3 -3 -3 -3 -2 -2 -2 -2 -2 -2 -2 -2
-6 -6 -6 -6 -6 -5 -5 -5 -5 -5 -5 -5 -5 -5 -5 -5 -5 -5 -5 -5 -5 -5 -5 -5 -5 -5 -5 -4 -3 -3 -3 -3 -3 -3 -3 -3 -3 -3
-7 -7 -6 -6 -6 -6 -6 -6 -6 -6 -6 -6 -6 -6 -5 -5 -5 -5 -5 -5 -5 -6 -5 -6 -6 -6 -6 -6 -5 -4 -4 -4 -4 -4 -3 -3 -3 -3
-7 -7 -7 -7 -7 -6 -7 -7 -6 -7 -7 -7 -7 -6 -6 -6 -6 -6 -6 -6 -6 -6 -6 -6 -6 -6 -6 -6 -6 -5 -5 -5 -5 -4 -4 -4 -4 -4
-8 -8 -7 -7 -7 -7 -7 -7 -7 -7 -7 -7 -7 -7 -7 -6 -6 -6 -6 -6 -6 -6 -6 -6 -6 -7 -7 -7 -7 -6 -6 -5 -5 -5 -5 -4 -4 -4
-8 -8 -8 -8 -8 -8 -8 -8 -8 -8 -8 -8 -8 -8 -7 -7 -7 -7 -7 -7 -7 -6 -6 -7 -7 -7 -7 -7 -7 -7 -7 -7 -6 -6 -5 -5 -5 -5
-8 -8 -9 -9 -9 -8 -8 -8 -9 -8 -9 -8 -9 -9 -8 -8 -7 -7 -7 -8 -7 -7 -7 -7 -7 -7 -7 -7 -7 -7 -7 -7 -7 -6 -6 -6 -5 -5
-9 -9 -9 -9 -9 -9 -9 -9 -9 -9 -9 -9 -9 -9 -9 -9 -8 -8 -8 -8 -8 -8 -8 -8 -8 -8 -8 -7 -7 -7 -7 -7 -7 -7 -7 -7 -6 -5
-10 -10 -10 -10 -10 -10 -10 -10 -10 -10 -10 -10 -10 -9 -9 -9 -9 -9 -9 -9 -9 -9 -9 -8 -9 -9 -9 -9 -8 -8 -8 -8 -8 -7 -7 -7 -7 -6
-10 -10 -10 -10 -10 -10 -10 -10 -10 -10 -10 -10 -10 -10 -10 -10 -10 -9 -9 -9 -9 -9 -9 -9 -9 -9 -9 -9 -9 -8 -8 -8 -8 -8 -8 -7 -7 -7
-11 -11 -11 -11 -11 -11 -11 -11 -11 -11 -11 -11 -10 -10 -10 -10 -10 -10 -10 -10 -10 -10 -10 -9 -9 -10 -10 -10 -10 -9 -9 -8 -8 -8 -8 -8 -8 -7
-11 -11 -11 -11 -11 -11 -11 -11 -11 -11 -11 -11 -11 -11 -11 -11 -11 -11 -11 -10 -10 -10 -10 -10 -10 -10 -10 -10 -10 -10 -9 -9 -9 -8 -8 -8 -9 -8
-12 -12 -12 -12 -12 -12 -12 -12 -11 -11 -11 -11 -11 -11 -11 -11 -11 -11 -11 -11 -11 -11 -11 -11 -10 -10 -10 -10 -10 -10 -10 -10 -9 -9 -8 -8 -8 -8
Wind_Speed
5 4 4 4 4 4 3 3 3 5 6 3 2 2 4 5 7 7 7 8 9 9 10 10 10 10 9 10 10 9 9 8 9 9 9 9 9 9
4 5 5 5 4 4 4 4 4 5 6 4 4 3 4 6 8 8 8 10 9 9 9 9 9 8 8 9 9 9 8 8 8 9 9 10 9 10
5 6 6 6 5 5 4 4 5 5 7 6 4 3 4 4 6 7 7 7 7 9 8 8 8 7 7 7 7 7 6 8 8 9 9 10 11 10
7 6 7 6 6 5 5 6 5 5 6 7 5 4 5 4 5 5 6 6 6 8 8 8 8 7 8 8 7 7 6 6 7 7 7 8 8 9
7 8 7 7 7 6 6 6 5 5 5 6 6 5 4 3 4 5 5 5 6 7 7 7 7 7 8 8 8 8 6 6 7 8 8 8 8 9
8 8 8 8 8 8 7 7 6 6 5 5 5 5 4 3 3 4 4 4 4 5 7 7 7 6 7 7 8 7 7 7 8 8 8 8 9 9
8 8 8 9 10 9 7 6 6 5 5 5 5 5 4 3 4 4 5 5 5 4 4 5 4 3 4 6 7 7 7 7 7 7 8 8 9 9
8 7 7 8 10 11 11 10 8 7 6 6 6 6 6 5 4 4 5 5 5 2 3 4 4 4 5 5 8 8 6 6 8 8 7 8 8 9
7 7 6 7 8 6 8 9 9 10 10 8 7 7 6 5 5 5 6 6 7 4 3 5 4 5 6 7 10 9 7 7 8 8 9 9 9 9
8 8 8 7 8 8 7 7 7 7 8 7 7 7 7 6 6 6 6 6 6 5 3 5 4 5 6 7 10 9 8 8 8 9 9 9 9 9
7 8 8 8 10 10 7 7 6 6 7 8 9 9 9 9 6 3 3 4 6 5 2 3 4 4 5 5 8 9 9 8 9 9 9 10 10 10
6 7 9 9 9 9 7 6 7 6 4 4 6 6 5 5 6 5 5 5 5 5 3 2 3 3 4 4 4 5 6 8 10 10 10 10 10 8
6 5 5 9 10 10 8 5 7 5 3 3 4 4 3 3 4 4 4 5 5 6 4 3 3 4 4 5 5 5 6 6 7 8 9 10 11 9
5 5 5 9 9 9 7 6 6 4 2 2 3 4 4 4 4 4 4 4 6 7 6 5 4 5 5 6 6 5 5 6 6 7 7 9 10 11
5 7 8 8 6 5 5 5 3 2 2 3 3 4 4 3 3 3 3 4 5 6 6 5 5 5 5 6 6 6 6 6 6 6 6 6 7 7
5 5 5 4 3 3 3 2 2 3 3 3 3 3 3 3 3 2 3 3 3 4 4 4 5 5 5 7 7 8 7 5 5 6 6 7 8 9
3 1 1 1 2 2 2 2 2 2 2 2 2 3 3 3 3 2 3 3 3 3 4 4 4 4 6 6 7 8 7 7 7 6 6 8 8 8
0 1 1 2 2 3 3 2 2 2 2 2 3 3 3 3 3 3 3 3 3 4 4 4 3 4 5 5 7 7 7 7 6 6 6 7 9 7
1 2 2 2 2 2 2 2 3 3 2 3 3 3 3 3 3 3 4 3 4 4 4 4 3 3 5 7 6 5 6 6 6 6 7 7 9 8
1 2 2 2 2 2 2 2 3 3 2 3 3 3 3 3 4 4 4 4 4 4 5 4 4 4 6 7 7 7 8 7 6 7 7 7 7 10
2 2 2 2 2 3 3 3 3 3 3 3 3 3 3 3 4 4 4 6 5 4 5 6 5 7 4 3 5 6 6 8 9 7 6 6 6 6
2 2 2 3 3 3 3 3 3 3 3 3 3 3 3 3 4 4 4 4 4 5 6 5 5 4 3 5 7 7 7 7 8 11 11 10 6 6
2 2 3 3 3 3 3 3 4 4 3 3 3 3 3 3 4 4 4 4 4 5 5 5 5 4 5 5 6 6 7 7 5 5 6 10 13 15
Wind_Direction
244 246 242 244 237 234 236 236 247 266 267 264 265 253 289 293 295 296 301 292 290 288 289 288 280 278 284 279 275 262 259 256 251 248 244 248 250 249
248 240 243 243 240 237 236 240 246 255 266 266 275 280 283 292 292 293 295 290 287 286 287 290 286 277 279 277 278 263 261 256 251 247 246 246 253 254
250 244 246 241 238 234 236 238 243 249 261 278 282 282 271 272 285 288 290 290 282 279 280 283 286 285 282 279 285 269 265 259 254 250 250 250 251 255
246 244 247 243 240 234 234 240 243 248 253 269 279 276 267 261 268 277 290 294 283 279 279 280 280 285 286 277 279 270 263 264 258 255 251 254 258 261
242 241 244 240 247 241 239 242 246 253 252 256 268 274 274 267 275 287 286 296 288 288 286 282 283 285 285 283 277 270 263 267 263 257 251 253 257 259
244 242 242 238 243 239 241 241 242 246 251 251 259 268 273 268 262 277 287 297 288 294 292 288 288 290 290 295 287 273 261 263 265 257 249 251 257 257
247 245 245 248 254 249 248 238 234 240 252 256 259 270 271 267 262 275 280 293 282 280 283 285 283 283 291 294 294 276 266 262 262 258 255 252 255 259
247 249 249 253 258 261 261 259 252 243 242 252 259 258 262 264 267 270 274 286 283 263 268 279 279 275 281 279 287 274 265 271 272 263 258 257 257 259
241 244 252 252 258 248 258 262 262 262 257 252 254 257 254 250 252 262 264 268 275 269 270 276 275 271 282 280 285 273 262 269 277 274 266 263 261 263
239 237 242 243 246 243 241 246 253 258 259 258 252 254 253 245 240 249 254 273 280 277 253 269 276 276 285 281 277 272 263 267 271 273 276 272 266 265
245 241 241 239 248 252 243 241 252 264 272 269 269 268 267 268 258 249 251 259 278 274 249 262 275 284 282 275 276 272 270 267 269 272 272 274 273 269
245 243 250 249 251 254 240 233 243 253 258 272 281 276 270 264 261 239 233 244 271 272 243 257 272 291 289 283 281 274 270 268 266 268 271 270 273 274
246 242 244 254 256 259 261 241 248 264 257 267 279 270 262 251 248 246 238 239 252 264 255 259 269 271 265 281 288 279 264 268 271 270 268 272 273 272
248 245 247 255 257 261 266 261 270 286 263 257 264 266 260 258 258 255 257 262 258 259 256 249 257 254 266 275 276 280 272 273 272 272 271 274 271 268
249 257 260 263 268 263 262 263 270 249 237 249 257 265 266 262 271 283 285 286 289 280 260 258 253 255 257 264 268 274 281 275 267 264 266 267 268 267
254 252 262 270 275 273 259 257 247 237 243 253 269 276 279 271 270 270 275 285 291 292 287 272 256 249 261 264 262 268 267 259 259 265 269 270 270 264
250 210 197 220 239 247 248 247 242 244 257 259 266 274 281 280 285 284 271 265 268 276 295 303 299 280 265 261 262 262 266 266 259 262 265 270 266 263
184 183 208 228 240 245 245 254 256 252 256 264 268 270 276 279 285 287 270 253 262 272 278 285 298 309 306 288 251 255 261 263 262 260 259 263 269 266
185 207 224 232 240 258 258 256 263 266 265 264 265 269 273 276 278 282 271 262 264 268 271 273 273 273 282 286 287 255 259 270 268 264 255 255 262 266
224 226 234 243 248 256 261 272 278 277 271 266 268 270 269 274 278 277 270 261 266 276 280 275 265 258 260 271 283 287 273 264 262 264 265 265 266 272
247 247 245 246 254 261 263 265 269 274 272 269 269 269 268 271 276 276 277 275 277 276 274 276 274 285 290 289 286 286 281 274 266 260 262 266 271 268
261 257 259 257 256 255 257 258 261 265 268 268 267 265 266 265 269 275 276 278 278 275 278 284 292 293 282 272 277 285 293 296 293 281 264 253 246 245
276 268 267 267 261 257 254 255 258 262 260 262 265 266 267 271 274 274 279 281 281 278 284 292 298 293 282 271 275 283 287 294 298 298 288 278 267 266
Height
1489 1490 1490 1491 1492 1492 1493 1494 1494 1491 1489 1489 1490 1491 1492 1493 1493 1493 1493 1494 1494 1495 1495 1496 1497 1498 1499 1500 1501 1502 1503 1503 1505 1506 1507 1509 1510 1511
1483 1484 1485 1486 1486 1487 1488 1489 1489 1489 1486 1484 1485 1486 1487 1487 1488 1488 1488 1488 1488 1489 1489 1490 1490 1491 1492 1494 1494 1495 1496 1497 1498 1499 1501 1503 1504 1505
1477 1478 1479 1480 1481 1482 1483 1483 1483 1484 1482 1480 1480 1481 1481 1481 1481 1481 1482 1482 1482 1483 1483 1483 1484 1485 1486 1487 1487 1488 1489 1490 1491 1493 1494 1496 1497 1498
1472 1473 1474 1475 1475 1476 1477 1477 1477 1477 1477 1475 1474 1475 1475 1475 1475 1475 1475 1476 1476 1477 1477 1478 1478 1478 1479 1480 1481 1481 1482 1484 1484 1485 1487 1489 1490 1491
1466 1467 1468 1469 1469 1470 1471 1471 1471 1472 1472 1471 1469 1470 1470 1470 1470 1469 1469 1469 1470 1471 1471 1472 1472 1472 1473 1473 1474 1475 1476 1477 1477 1478 1480 1481 1483 1484
1460 1461 1462 1463 1463 1464 1465 1465 1466 1466 1466 1466 1464 1464 1464 1464 1465 1464 1463 1463 1464 1464 1465 1465 1466 1466 1467 1467 1468 1468 1469 1470 1470 1471 1472 1474 1476 1477
1454 1455 1455 1456 1457 1458 1459 1459 1460 1460 1460 1460 1459 1459 1458 1459 1459 1459 1458 1458 1458 1458 1458 1458 1459 1459 1460 1460 1460 1461 1462 1463 1464 1464 1465 1467 1468 1469
1447 1448 1449 1450 1451 1452 1453 1454 1454 1454 1454 1454 1453 1452 1452 1453 1454 1454 1453 1452 1451 1453 1453 1452 1453 1453 1453 1453 1453 1454 1455 1456 1457 1457 1458 1459 1461 1462
1441 1442 1442 1443 1445 1445 1446 1447 1447 1448 1449 1449 1447 1447 1447 1448 1449 1448 1448 1447 1446 1446 1447 1445 1446 1446 1447 1447 1447 1448 1448 1450 1450 1451 1451 1452 1454 1455
1435 1436 1436 1437 1438 1438 1439 1440 1440 1441 1442 1442 1442 1442 1442 1442 1443 1443 1442 1441 1440 1440 1441 1440 1439 1440 1440 1440 1440 1441 1442 1442 1443 1444 1445 1445 1446 1447
1428 1429 1430 1430 1431 1433 1434 1434 1434 1434 1435 1436 1437 1437 1437 1437 1437 1437 1437 1436 1434 1434 1435 1435 1434 1434 1434 1433 1434 1434 1435 1436 1436 1437 1438 1438 1439 1440
1422 1423 1424 1425 1425 1427 1427 1427 1427 1428 1429 1429 1430 1430 1430 1430 1431 1432 1431 1431 1429 1428 1428 1430 1429 1429 1428 1426 1427 1427 1428 1429 1430 1431 1431 1432 1432 1432
1416 1416 1417 1419 1420 1421 1421 1422 1422 1423 1423 1423 1423 1423 1423 1424 1424 1425 1425 1425 1425 1423 1424 1425 1424 1424 1424 1421 1419 1421 1422 1422 1423 1424 1424 1425 1425 1425
1411 1411 1412 1413 1414 1415 1415 1416 1417 1417 1417 1417 1417 1417 1417 1418 1418 1419 1419 1419 1419 1419 1419 1420 1419 1419 1418 1415 1414 1413 1415 1416 1416 1416 1417 1417 1418 1419
1406 1406 1407 1408 1409 1409 1410 1410 1411 1411 1411 1412 1411 1411 1412 1411 1412 1412 1412 1413 1413 1414 1414 1414 1414 1413 1413 1411 1409 1408 1408 1408 1409 1409 1409 1410 1411 1411
1401 1401 1402 1403 1404 1404 1404 1405 1405 1405 1406 1406 1406 1406 1406 1406 1406 1407 1406 1407 1407 1407 1408 1408 1408 1408 1406 1405 1404 1402 1402 1402 1401 1403 1403 1403 1404 1404
1396 1396 1397 1398 1398 1399 1399 1399 1400 1400 1401 1401 1401 1401 1401 1401 1401 1402 1402 1401 1401 1400 1400 1401 1402 1402 1401 1400 1398 1397 1396 1395 1396 1396 1396 1395 1396 1397
1392 1391 1392 1393 1394 1394 1394 1395 1395 1396 1396 1396 1397 1397 1396 1396 1396 1396 1396 1396 1396 1396 1395 1396 1396 1395 1394 1393 1393 1391 1390 1390 1389 1390 1390 1388 1387 1389
1388 1387 1388 1389 1389 1390 1390 1391 1391 1391 1392 1392 1392 1392 1392 1392 1392 1391 1391 1391 1391 1391 1390 1391 1390 1390 1388 1385 1384 1386 1385 1383 1383 1383 1383 1382 1381 1381
1384 1384 1384 1385 1385 1386 1387 1387 1387 1387 1388 1388 1388 1388 1388 1388 1387 1387 1387 1386 1386 1386 1385 1385 1385 1385 1384 1381 1378 1378 1379 1378 1377 1375 1375 1375 1375 1375
1380 1381 1381 1381 1382 1382 1383 1383 1383 1384 1384 1384 1384 1384 1384 1384 1383 1382 1382 1382 1381 1381 1380 1380 1380 1380 1379 1377 1374 1371 1371 1372 1371 1370 1369 1369 1368 1368
1377 1377 1378 1378 1378 1379 1379 1379 1379 1380 1380 1380 1380 1380 1380 1379 1378 1378 1377 1376 1376 1376 1375 1375 1374 1374 1373 1371 1368 1366 1364 1364 1364 1364 1364 1363 1362 1361
1374 1374 1375 1375 1375 1375 1375 1375 1375 1375 1376 1375 1375 1375 1375 1375 1374 1373 1372 1372 1372 1371 1370 1369 1368 1368 1367 1365 1364 1361 1359 1358 1357 1357 1357 1357 1358 1357